Flag for Austria Weather past 2 weeks in Graz, Styria, Austria

25 °F

Ice fog.

Feels Like: 25 °F
Forecast: 21 / 39 °F
Wind: 2 mph from North

Location: Graz-Thalerhof-Flughafen

Current Time: Nov 27, 2015 at 2:28:20 AM

Latest Report: Nov 27, 2015 at 1:50 AM

Visibility: 0 mi

Pressure: 30.01 "Hg

Humidity: 100%

Dew point: 25 °F

Location of GrazLocation

Historic Weather in Graz — Graph


Graz temperature yesterday

Maximum temperature yesterday: 36 °F (at 12:20 PM)
Minimum temperature yesterday: 27 °F (at 10:20 PM)
Average temperature yesterday: 32 °F

Past Weeks' High & Low Weather Summary

High70 °F (Nov 16, 12:50 PM)100% (Nov 12, 1:20 AM)30.39 "Hg (Nov 12, 1:20 AM)
Low19 °F (Nov 25, 4:20 AM)35% (Nov 16, 1:20 PM)29.33 "Hg (Nov 21, 12:20 AM)
Average41 °F86%29.99 "Hg
* Reported Nov 12 1:20 AM — Nov 27 1:20 AM, Graz, Weather by CustomWeather, © 2015

Note: Actual official high and low records may vary slightly from our data, if they occured in-between our weather recording intervals... More about our weather records


Graz weather history for previous 24 hours

Time TempWeatherWind HumidityBarometerVisibility
1:20 AM
Fri, Nov 27
25 °FIce fog.1 mph100%30.01 "Hg0 mi
12:50 AM25 °FSnow flurries. Ice fog.1 mph100%30.01 "Hg0 mi
12:20 AM27 °FIce fog.1 mph100%30.01 "Hg0 mi
11:50 PM
Thu, Nov 26
27 °FIce fog.1 mph100%30.01 "Hg0 mi
10:50 PM28 °FSnow. Overcast.1 mph100%30.01 "Hg1 mi
10:20 PM27 °FSnow. Overcast.1 mph100%29.98 "Hg1 mi
9:50 PM28 °FSnow. Overcast.1 mph100%30.01 "Hg1 mi
9:20 PM28 °FSnow. Overcast.1 mph100%29.98 "Hg1 mi
8:50 PM28 °FLight fog.1 mph100%29.98 "Hg0 mi
8:20 PM28 °FSnow. Overcast.2 mph100%29.95 "Hg1 mi
7:50 PM30 °FLight freezing rain. Passing clouds.1 mph100%29.92 "Hg2 mi
7:20 PM32 °FPassing clouds.1 mph93%29.92 "Hg4 mi
6:50 PM34 °FPassing clouds.1 mph93%29.92 "Hg4 mi
6:20 PM34 °FPassing clouds.2 mph93%29.89 "Hg4 mi
5:50 PM34 °FPassing clouds.1 mph93%29.89 "Hg5 mi
5:20 PM34 °FPartly cloudy.1 mph93%29.86 "Hg5 mi
4:50 PM36 °FPartly cloudy.2 mph87%29.86 "Hg5 mi
4:20 PM36 °FPartly cloudy.2 mph87%29.86 "Hg5 mi
3:50 PM36 °FPartly sunny.3 mph87%29.86 "Hg6 mi
3:20 PM36 °FPartly sunny.2 mph87%29.83 "HgN/A
2:50 PM36 °FPartly sunny.2 mph87%29.83 "HgN/A
2:20 PM36 °FPartly sunny.3 mph81%29.80 "HgN/A
1:50 PM36 °FPartly sunny.3 mph81%29.80 "HgN/A
1:20 PM36 °FPartly sunny.3 mph81%29.80 "HgN/A
12:50 PM36 °FBroken clouds.2 mph81%29.80 "HgN/A
12:20 PM36 °FBroken clouds.2 mph81%29.80 "HgN/A
11:50 AM34 °FLight snow. More clouds than sun.1 mph87%29.80 "Hg6 mi
11:20 AM34 °FLight snow. More clouds than sun.3 mph87%29.80 "Hg4 mi
10:50 AM34 °FMostly cloudy.1 mph87%29.80 "Hg4 mi
10:20 AM34 °FMostly cloudy.1 mph87%29.80 "Hg4 mi
9:50 AM32 °FPartly sunny.1 mph93%29.80 "Hg4 mi
9:20 AM32 °FPartly sunny.1 mph93%29.77 "Hg4 mi
8:50 AM32 °FLight freezing rain. Mostly cloudy.2 mph93%29.77 "Hg3 mi
8:20 AM32 °FLight freezing rain. Mostly cloudy.1 mph93%29.77 "Hg2 mi
7:50 AM30 °FLight freezing rain. Mostly cloudy.3 mph100%29.77 "Hg2 mi
7:20 AM30 °FLight freezing rain. Cloudy.2 mph100%29.74 "Hg2 mi
6:50 AM30 °FLight mixture of precip. Mostly cloudy.2 mph100%29.74 "Hg2 mi
6:20 AM30 °FLight freezing rain. Mostly cloudy.1 mph93%29.74 "Hg2 mi
5:50 AM30 °FLight mixture of precip. Mostly cloudy.1 mph93%29.71 "Hg2 mi
5:20 AM30 °FLight mixture of precip. Passing clouds.2 mph93%29.71 "Hg2 mi
4:20 AM30 °FLight mixture of precip. Partly cloudy.1 mph93%29.71 "Hg2 mi
3:50 AM30 °FLight mixture of precip. Passing clouds.1 mph100%29.71 "Hg2 mi
3:20 AM30 °FLight snow. Passing clouds.1 mph100%29.71 "Hg2 mi
2:50 AM30 °FLight snow. Passing clouds.2 mph93%29.71 "Hg2 mi
2:20 AM30 °FSnow. Passing clouds.2 mph93%29.71 "Hg2 mi
Weather by CustomWeather, © 2015

See weather overviewHow to use our weather pages